Home > Weather > Hamilton > Past weeks

Flag for Bermuda Past Weather in Hamilton, Bermuda — Yesterday and Last 2 Weeks

Now
81 °F

Scattered showers. Partly sunny.


Feels Like: 86 °F
Forecast: 80 / 85 °F
Wind: 14 mph from Southeast

Location: Bermuda

Current Time: Aug 25, 2016 at 12:09:54 PM

Latest Report: Aug 25, 2016 at 10:55 AM


Visibility: N/A

Pressure: 30.07 "Hg

Humidity: 84%

Dew Point: 75 °F

Location of HamiltonLocation

Past Weather in Hamilton — Graph

°F

Hamilton Temperature Yesterday

Maximum temperature yesterday: 84 °F (at 9:55 AM)
Minimum temperature yesterday: 73 °F (at 12:55 PM)
Average temperature yesterday: 79 °F

High & Low Weather Summary for the Past Weeks

 TemperatureHumidityPressure
High90 °F (Aug 22, 12:55 PM)94% (Aug 23, 11:55 AM)30.27 "Hg (Aug 23, 11:55 AM)
Low73 °F (Aug 24, 12:55 PM)55% (Aug 11, 12:55 PM)29.95 "Hg (Aug 20, 3:55 AM)
Average82 °F73%30.13 "Hg
* Reported Aug 10 9:55 AM — Aug 25 9:55 AM, Hamilton, Weather by CustomWeather, © 2016

Note: Actual official high and low records may vary slightly from our data, if they occured in-between our weather recording intervals... More about our weather records

Advertising

Hamilton Weather History for the Previous 24 Hours

Scroll right to see more
 ConditionsComfort  
Time TempWeatherWind HumidityBarometerVisibility
9:55 AM
Thu, Aug 25
81 °FBroken clouds.8 mph84%30.07 "HgN/A
8:55 AM81 °FScattered showers. Broken clouds.6 mph84%30.07 "HgN/A
7:55 AM77 °FScattered showers. Partly sunny.6 mph89%30.04 "HgN/A
6:55 AM77 °FScattered showers. Passing clouds.No wind89%30.04 "HgN/A
5:55 AM79 °FScattered showers. Mostly cloudy.7 mph89%30.04 "HgN/A
4:55 AM77 °FScattered showers. Overcast.3 mph89%30.04 "HgN/A
3:55 AM77 °FScattered showers. Mostly cloudy.No wind89%30.04 "HgN/A
2:55 AM77 °FMostly cloudy.No wind89%30.04 "HgN/A
1:55 AM77 °FMostly cloudy.No wind89%30.07 "HgN/A
12:55 AM77 °FScattered showers. Mostly cloudy.1 mph94%30.09 "HgN/A
11:55 PM
Wed, Aug 24
77 °FPassing clouds.2 mph94%30.09 "HgN/A
10:55 PM77 °FMostly cloudy.5 mph94%30.09 "HgN/A
9:55 PM77 °FPartly cloudy.2 mph89%30.09 "HgN/A
8:55 PM79 °FPassing clouds.5 mph84%30.09 "HgN/A
7:55 PM79 °FPartly sunny.5 mph84%30.09 "HgN/A
6:55 PM79 °FPartly sunny.6 mph89%30.07 "HgN/A
5:55 PM79 °FScattered showers. Partly sunny.5 mph89%30.09 "HgN/A
4:55 PM77 °FLight rain. Partly sunny.1 mph94%30.09 "HgN/A
3:55 PM77 °FLight rain. Partly sunny.3 mph89%30.09 "HgN/A
2:55 PM75 °FSprinkles. Cloudy.13 mph94%30.09 "Hg6 mi
1:55 PM75 °FSprinkles. Cloudy.3 mph94%30.12 "HgN/A
12:55 PM73 °FThunderstorms. Cloudy.13 mph94%30.12 "Hg3 mi
Weather by CustomWeather, © 2016

See weather overviewHow to use our weather pages